Year,Month,Day,Hour,Minute,Value (Times are PST for temperature in C)
2017,04,15,09,56,10.20
2017,04,15,09,57,10.20
2017,04,15,09,58,10.30
2017,04,15,09,59,10.30
2017,04,15,10,00,10.40
2017,04,15,10,01,10.40
2017,04,15,10,02,10.50
2017,04,15,10,03,10.50
2017,04,15,10,04,10.50
2017,04,15,10,05,10.50
2017,04,15,10,06,10.50
2017,04,15,10,07,10.60
2017,04,15,10,08,10.60
2017,04,15,10,09,10.50
2017,04,15,10,10,10.50
2017,04,15,10,11,10.60
2017,04,15,10,12,10.50
2017,04,15,10,13,10.50
2017,04,15,10,14,10.40
2017,04,15,10,15,10.40
2017,04,15,10,16,10.40
2017,04,15,10,17,10.40
2017,04,15,10,18,10.40
2017,04,15,10,19,10.40
2017,04,15,10,20,10.40
2017,04,15,10,21,10.40
2017,04,15,10,22,10.40
2017,04,15,10,23,10.50
2017,04,15,10,24,10.50
2017,04,15,10,25,10.50
2017,04,15,10,26,10.50
2017,04,15,10,27,10.50
2017,04,15,10,28,10.50
2017,04,15,10,29,10.50
2017,04,15,10,30,10.60
2017,04,15,10,31,10.60
2017,04,15,10,32,10.50
2017,04,15,10,33,10.60
2017,04,15,10,34,10.60
2017,04,15,10,35,10.60
2017,04,15,10,36,10.60
2017,04,15,10,37,10.70
2017,04,15,10,38,10.70
2017,04,15,10,39,10.70
2017,04,15,10,40,10.70
2017,04,15,10,41,10.70
2017,04,15,10,42,10.70
2017,04,15,10,43,10.70
2017,04,15,10,44,10.70
2017,04,15,10,45,10.70
2017,04,15,10,46,10.70
2017,04,15,10,47,10.80
2017,04,15,10,48,10.80
2017,04,15,10,49,10.80
2017,04,15,10,50,10.80
2017,04,15,10,51,10.80
2017,04,15,10,52,10.80
2017,04,15,10,53,10.80
2017,04,15,10,54,10.80
2017,04,15,10,55,10.90
2017,04,15,10,56,10.90
2017,04,15,10,57,10.90
2017,04,15,10,58,10.80
2017,04,15,10,59,10.80
2017,04,15,11,00,10.80
2017,04,15,11,01,10.80
2017,04,15,11,02,10.90
2017,04,15,11,03,10.80
2017,04,15,11,04,10.80
2017,04,15,11,05,10.80
2017,04,15,11,06,10.80
2017,04,15,11,07,10.70
2017,04,15,11,08,10.60
2017,04,15,11,09,10.60
2017,04,15,11,10,10.50
2017,04,15,11,11,10.50
2017,04,15,11,12,10.40
2017,04,15,11,13,10.40
2017,04,15,11,14,10.40
2017,04,15,11,15,10.40
2017,04,15,11,16,10.30
2017,04,15,11,17,10.30
2017,04,15,11,18,10.30
2017,04,15,11,19,10.20
2017,04,15,11,20,10.20
2017,04,15,11,21,10.10
2017,04,15,11,22,10.10
2017,04,15,11,23,10.10
2017,04,15,11,24,10.10
2017,04,15,11,25,10.10
2017,04,15,11,26,10.00
2017,04,15,11,27,10.00
2017,04,15,11,28,10.00
2017,04,15,11,29,9.90
2017,04,15,11,30,9.90
2017,04,15,11,31,9.90
2017,04,15,11,32,9.80
2017,04,15,11,33,9.80
2017,04,15,11,34,9.80
2017,04,15,11,35,9.80
2017,04,15,11,36,9.80
2017,04,15,11,37,9.80
2017,04,15,11,38,9.80
2017,04,15,11,39,9.80
2017,04,15,11,40,9.80
2017,04,15,11,41,9.80
2017,04,15,11,42,9.80
2017,04,15,11,43,9.80
2017,04,15,11,44,9.80
2017,04,15,11,45,9.80
2017,04,15,11,46,9.80
2017,04,15,11,47,9.80
2017,04,15,11,48,9.80
2017,04,15,11,49,9.80
2017,04,15,11,50,9.80
2017,04,15,11,51,9.80
2017,04,15,11,52,9.90
2017,04,15,11,53,9.90
2017,04,15,11,54,9.90
2017,04,15,11,55,9.90
2017,04,15,11,56,9.90
2017,04,15,11,57,9.90
2017,04,15,11,58,9.90
2017,04,15,11,59,10.00
2017,04,15,12,00,10.00
2017,04,15,12,01,10.10
2017,04,15,12,02,10.10
2017,04,15,12,03,10.20
2017,04,15,12,04,10.20
2017,04,15,12,05,10.20
2017,04,15,12,06,10.20
2017,04,15,12,07,10.30
2017,04,15,12,08,10.40
2017,04,15,12,09,10.50
2017,04,15,12,10,10.60
2017,04,15,12,11,10.60
2017,04,15,12,12,10.70
2017,04,15,12,13,10.70
2017,04,15,12,14,10.80
2017,04,15,12,15,10.90
2017,04,15,12,16,11.00
2017,04,15,12,17,11.00
2017,04,15,12,18,11.00
2017,04,15,12,19,11.00
2017,04,15,12,20,11.00
2017,04,15,12,21,11.00
2017,04,15,12,22,11.10
2017,04,15,12,23,11.20
2017,04,15,12,24,11.20
2017,04,15,12,25,11.20
2017,04,15,12,26,11.10
2017,04,15,12,27,11.10
2017,04,15,12,28,11.10
2017,04,15,12,29,11.20
2017,04,15,12,30,11.30
2017,04,15,12,31,11.40
2017,04,15,12,32,11.50
2017,04,15,12,33,11.60
2017,04,15,12,34,11.70
2017,04,15,12,35,11.70
2017,04,15,12,36,11.70
2017,04,15,12,37,11.70
2017,04,15,12,38,11.60
2017,04,15,12,39,11.50
2017,04,15,12,40,11.40
2017,04,15,12,41,11.30
2017,04,15,12,42,11.30
2017,04,15,12,43,11.30
2017,04,15,12,44,11.30
2017,04,15,12,45,11.20
2017,04,15,12,46,11.10
2017,04,15,12,47,11.10
2017,04,15,12,48,11.10
2017,04,15,12,49,11.00
2017,04,15,12,50,11.00
2017,04,15,12,51,10.90
2017,04,15,12,52,10.90
2017,04,15,12,53,10.80
2017,04,15,12,54,10.80
2017,04,15,12,55,10.70
2017,04,15,12,56,10.70
2017,04,15,12,57,10.60
2017,04,15,12,58,10.60
2017,04,15,12,59,10.60
2017,04,15,13,00,10.50
2017,04,15,13,01,10.50
2017,04,15,13,02,10.40
2017,04,15,13,03,10.40
2017,04,15,13,04,10.40
2017,04,15,13,05,10.50
2017,04,15,13,06,10.50
2017,04,15,13,07,10.60
2017,04,15,13,08,10.60
2017,04,15,13,09,10.70
2017,04,15,13,10,10.70
2017,04,15,13,11,10.80
2017,04,15,13,12,10.90
2017,04,15,13,13,11.00
2017,04,15,13,14,11.00
2017,04,15,13,15,11.10
2017,04,15,13,16,11.20
2017,04,15,13,17,11.20
2017,04,15,13,18,11.20
2017,04,15,13,19,11.30
2017,04,15,13,20,11.40
2017,04,15,13,21,11.40
2017,04,15,13,22,11.40
2017,04,15,13,23,11.40
2017,04,15,13,24,11.50
2017,04,15,13,25,11.50
2017,04,15,13,26,11.40
2017,04,15,13,27,11.30
2017,04,15,13,28,11.30
2017,04,15,13,29,11.40
2017,04,15,13,30,11.40
2017,04,15,13,31,11.40
2017,04,15,13,32,11.40
2017,04,15,13,33,11.30
2017,04,15,13,34,11.30
2017,04,15,13,35,11.20
2017,04,15,13,36,11.20
2017,04,15,13,37,11.20
2017,04,15,13,38,11.20
2017,04,15,13,39,11.30
2017,04,15,13,40,11.40
2017,04,15,13,41,11.50
2017,04,15,13,42,11.60
2017,04,15,13,43,11.60
2017,04,15,13,44,11.60
2017,04,15,13,45,11.60
2017,04,15,13,46,11.60
2017,04,15,13,47,11.50
2017,04,15,13,48,11.40
2017,04,15,13,49,11.40
2017,04,15,13,50,11.30
2017,04,15,13,51,11.20
2017,04,15,13,52,11.10
2017,04,15,13,53,11.00
2017,04,15,13,54,10.90
2017,04,15,13,55,10.90
2017,04,15,13,56,10.80
2017,04,15,13,57,10.80
2017,04,15,13,58,10.80
2017,04,15,13,59,10.80
2017,04,15,14,00,10.80
2017,04,15,14,01,10.90
2017,04,15,14,02,10.90
2017,04,15,14,03,11.00
2017,04,15,14,04,11.10
2017,04,15,14,05,11.20
2017,04,15,14,06,11.30
2017,04,15,14,07,11.30
2017,04,15,14,08,11.40
2017,04,15,14,09,11.50
2017,04,15,14,10,11.50
2017,04,15,14,11,11.50
2017,04,15,14,12,11.60
2017,04,15,14,13,11.60
2017,04,15,14,14,11.60
2017,04,15,14,15,11.50
2017,04,15,14,16,11.50
2017,04,15,14,17,11.50
2017,04,15,14,18,11.60
2017,04,15,14,19,11.60
2017,04,15,14,20,11.60
2017,04,15,14,21,11.70
2017,04,15,14,22,11.80
2017,04,15,14,23,11.80
2017,04,15,14,24,11.90
2017,04,15,14,25,11.90
2017,04,15,14,26,12.10
2017,04,15,14,27,12.10
2017,04,15,14,28,12.10
2017,04,15,14,29,12.10
2017,04,15,14,30,12.10
2017,04,15,14,31,12.00
2017,04,15,14,32,12.00
2017,04,15,14,33,11.90
2017,04,15,14,34,11.80
2017,04,15,14,35,11.70
2017,04,15,14,36,11.60
2017,04,15,14,37,11.50
2017,04,15,14,38,11.50
2017,04,15,14,39,11.40
2017,04,15,14,40,11.40
2017,04,15,14,41,11.50
2017,04,15,14,42,11.60
2017,04,15,14,43,11.70
2017,04,15,14,44,11.90
2017,04,15,14,45,12.00
2017,04,15,14,46,12.10
2017,04,15,14,47,12.20
2017,04,15,14,48,12.30
2017,04,15,14,49,12.40
2017,04,15,14,50,12.50
2017,04,15,14,51,12.60
2017,04,15,14,52,12.60
2017,04,15,14,53,12.70
2017,04,15,14,54,12.70
2017,04,15,14,55,12.70
2017,04,15,14,56,12.70
2017,04,15,14,57,12.60
2017,04,15,14,58,12.50
2017,04,15,14,59,12.40
2017,04,15,15,00,12.40
2017,04,15,15,01,12.50
2017,04,15,15,02,12.50
2017,04,15,15,03,12.60
2017,04,15,15,04,12.60
2017,04,15,15,05,12.60
2017,04,15,15,06,12.40
2017,04,15,15,07,12.30
2017,04,15,15,08,12.30
2017,04,15,15,09,12.20
2017,04,15,15,10,12.20
2017,04,15,15,11,12.10
2017,04,15,15,12,12.00
2017,04,15,15,13,12.00
2017,04,15,15,14,11.90
2017,04,15,15,15,11.90
2017,04,15,15,16,11.80
2017,04,15,15,17,11.70
2017,04,15,15,18,11.60
2017,04,15,15,19,11.60
2017,04,15,15,20,11.50
2017,04,15,15,21,11.50
2017,04,15,15,22,11.60
2017,04,15,15,23,11.60
2017,04,15,15,24,11.60
2017,04,15,15,25,11.60
2017,04,15,15,26,11.70
2017,04,15,15,27,11.70
2017,04,15,15,28,11.70
2017,04,15,15,29,11.70
2017,04,15,15,30,11.70
2017,04,15,15,31,11.60
2017,04,15,15,32,11.60
2017,04,15,15,33,11.60
2017,04,15,15,34,11.60
2017,04,15,15,35,11.60
2017,04,15,15,36,11.60
2017,04,15,15,37,11.60
2017,04,15,15,38,11.60
2017,04,15,15,39,11.60
2017,04,15,15,40,11.60
2017,04,15,15,41,11.60
2017,04,15,15,42,11.60
2017,04,15,15,43,11.60
2017,04,15,15,44,11.60
2017,04,15,15,45,11.60
2017,04,15,15,46,11.60
2017,04,15,15,47,11.60
2017,04,15,15,48,11.60
2017,04,15,15,49,11.60
2017,04,15,15,50,11.60
2017,04,15,15,51,11.60
2017,04,15,15,52,11.50
2017,04,15,15,53,11.50
2017,04,15,15,54,11.50
2017,04,15,15,55,11.60
2017,04,15,15,56,11.60
2017,04,15,15,57,11.60
2017,04,15,15,58,11.60
2017,04,15,15,59,11.60
2017,04,15,16,00,11.60
2017,04,15,16,01,11.60
2017,04,15,16,02,11.70
2017,04,15,16,03,11.70
2017,04,15,16,04,11.70
2017,04,15,16,05,11.80
2017,04,15,16,06,11.90
2017,04,15,16,07,11.90
2017,04,15,16,08,12.00
2017,04,15,16,09,12.00
2017,04,15,16,10,12.10
2017,04,15,16,11,12.10
2017,04,15,16,12,12.20
2017,04,15,16,13,12.20
2017,04,15,16,14,12.30
2017,04,15,16,15,12.30
2017,04,15,16,16,12.20
2017,04,15,16,17,12.20
2017,04,15,16,18,12.10
2017,04,15,16,19,12.00
2017,04,15,16,20,11.90
2017,04,15,16,21,11.80
2017,04,15,16,22,11.70
2017,04,15,16,23,11.50
2017,04,15,16,24,11.30
2017,04,15,16,25,11.20
2017,04,15,16,26,11.10
2017,04,15,16,27,11.00
2017,04,15,16,28,11.00
2017,04,15,16,29,10.90
2017,04,15,16,30,10.80
2017,04,15,16,31,10.80
2017,04,15,16,32,10.70
2017,04,15,16,33,10.70
2017,04,15,16,34,10.60
2017,04,15,16,35,10.60
2017,04,15,16,36,10.50
2017,04,15,16,37,10.50
2017,04,15,16,38,10.40
2017,04,15,16,39,10.40
2017,04,15,16,40,10.40
2017,04,15,16,41,10.40
2017,04,15,16,42,10.30
2017,04,15,16,43,10.30
2017,04,15,16,44,10.30
2017,04,15,16,45,10.30
2017,04,15,16,46,10.30
2017,04,15,16,47,10.30
2017,04,15,16,48,10.30
2017,04,15,16,49,10.30
2017,04,15,16,50,10.30
2017,04,15,16,51,10.30
2017,04,15,16,52,10.30
2017,04,15,16,53,10.30
2017,04,15,16,54,10.20
2017,04,15,16,55,10.20
2017,04,15,16,56,10.20
2017,04,15,16,57,10.20
2017,04,15,16,58,10.20
2017,04,15,16,59,10.20
2017,04,15,17,00,10.20
2017,04,15,17,01,10.20
2017,04,15,17,02,10.20
2017,04,15,17,03,10.20
2017,04,15,17,04,10.10
2017,04,15,17,05,10.10
2017,04,15,17,06,10.20
2017,04,15,17,07,10.20
2017,04,15,17,08,10.20
2017,04,15,17,09,10.20
2017,04,15,17,10,10.20
2017,04,15,17,11,10.20
2017,04,15,17,12,10.20
2017,04,15,17,13,10.20
2017,04,15,17,14,10.30
2017,04,15,17,15,10.30
2017,04,15,17,16,10.40
2017,04,15,17,17,10.50
2017,04,15,17,18,10.60
2017,04,15,17,19,10.60
2017,04,15,17,20,10.70
2017,04,15,17,21,10.80
2017,04,15,17,22,10.80
2017,04,15,17,23,10.90
2017,04,15,17,24,11.00
2017,04,15,17,25,11.10
2017,04,15,17,26,11.20
2017,04,15,17,27,11.30
2017,04,15,17,28,11.30
2017,04,15,17,29,11.30
2017,04,15,17,30,11.40
2017,04,15,17,31,11.40
2017,04,15,17,32,11.40
2017,04,15,17,33,11.50
2017,04,15,17,34,11.50
2017,04,15,17,35,11.60
2017,04,15,17,36,11.60
2017,04,15,17,37,11.70
2017,04,15,17,38,11.70
2017,04,15,17,39,11.80
2017,04,15,17,40,11.90
2017,04,15,17,41,12.00
2017,04,15,17,42,12.00
2017,04,15,17,43,12.10
2017,04,15,17,44,12.10
2017,04,15,17,45,12.10
2017,04,15,17,46,12.10
2017,04,15,17,47,12.10
2017,04,15,17,48,12.10
2017,04,15,17,49,12.10
2017,04,15,17,50,12.10
2017,04,15,17,51,12.00
2017,04,15,17,52,12.00
2017,04,15,17,53,11.90
2017,04,15,17,54,11.80
2017,04,15,17,55,11.80
2017,04,15,17,56,11.90
2017,04,15,17,57,11.90
2017,04,15,17,58,11.90
2017,04,15,17,59,11.90
2017,04,15,18,00,11.80
2017,04,15,18,01,11.80
2017,04,15,18,02,11.80
2017,04,15,18,03,11.80
2017,04,15,18,04,11.70
2017,04,15,18,05,11.60
2017,04,15,18,06,11.60
2017,04,15,18,07,11.60
2017,04,15,18,08,11.60
2017,04,15,18,09,11.60
2017,04,15,18,10,11.60
2017,04,15,18,11,11.60
2017,04,15,18,12,11.60
2017,04,15,18,13,11.60
2017,04,15,18,14,11.60
2017,04,15,18,15,11.60
2017,04,15,18,16,11.60
2017,04,15,18,17,11.60
2017,04,15,18,18,11.60
2017,04,15,18,19,11.70
2017,04,15,18,20,11.70
2017,04,15,18,21,11.70
2017,04,15,18,22,11.70
2017,04,15,18,23,11.70
2017,04,15,18,24,11.80
2017,04,15,18,25,11.80
2017,04,15,18,26,11.80
2017,04,15,18,27,11.70
2017,04,15,18,28,11.70
2017,04,15,18,29,11.70
2017,04,15,18,30,11.70
2017,04,15,18,31,11.70
2017,04,15,18,32,11.70
2017,04,15,18,33,11.70
2017,04,15,18,34,11.70
2017,04,15,18,35,11.60
2017,04,15,18,36,11.60
2017,04,15,18,37,11.60
2017,04,15,18,38,11.60
2017,04,15,18,39,11.50
2017,04,15,18,40,11.50
2017,04,15,18,41,11.50
2017,04,15,18,42,11.40
2017,04,15,18,43,11.40
2017,04,15,18,44,11.40
2017,04,15,18,45,11.40
2017,04,15,18,46,11.40
2017,04,15,18,47,11.40
2017,04,15,18,48,11.40
2017,04,15,18,49,11.40
2017,04,15,18,50,11.30
2017,04,15,18,51,11.30
2017,04,15,18,52,11.30
2017,04,15,18,53,11.30
2017,04,15,18,54,11.30
2017,04,15,18,55,11.20
2017,04,15,18,56,11.20
2017,04,15,18,57,11.20
2017,04,15,18,58,11.20
2017,04,15,18,59,11.10
2017,04,15,19,00,11.10
2017,04,15,19,01,11.10
2017,04,15,19,02,11.10
2017,04,15,19,03,11.10
2017,04,15,19,04,11.00
2017,04,15,19,05,11.00
2017,04,15,19,06,11.00
2017,04,15,19,07,11.00
2017,04,15,19,08,11.00
2017,04,15,19,09,11.00
2017,04,15,19,10,11.00
2017,04,15,19,11,11.00
2017,04,15,19,12,11.00
2017,04,15,19,13,11.00
2017,04,15,19,14,11.00
2017,04,15,19,15,11.00
2017,04,15,19,16,11.00
2017,04,15,19,17,11.00
2017,04,15,19,18,10.90
2017,04,15,19,19,10.90
2017,04,15,19,20,10.90
2017,04,15,19,21,10.90
2017,04,15,19,22,10.90
2017,04,15,19,23,10.90
2017,04,15,19,24,10.90
2017,04,15,19,25,10.90
2017,04,15,19,26,10.90
2017,04,15,19,27,10.80
2017,04,15,19,28,10.80
2017,04,15,19,29,10.80
2017,04,15,19,30,10.80
2017,04,15,19,31,10.80
2017,04,15,19,32,10.80
2017,04,15,19,33,10.80
2017,04,15,19,34,10.80
2017,04,15,19,35,10.70
2017,04,15,19,36,10.70
2017,04,15,19,37,10.60
2017,04,15,19,38,10.60
2017,04,15,19,39,10.50
2017,04,15,19,40,10.40
2017,04,15,19,41,10.40
2017,04,15,19,42,10.40
2017,04,15,19,43,10.40
2017,04,15,19,44,10.40
2017,04,15,19,45,10.40
2017,04,15,19,46,10.40
2017,04,15,19,47,10.40
2017,04,15,19,48,10.40
2017,04,15,19,49,10.40
